Location: Centerville
(32.8776°N, 96.6203°W)
Time: 05:27:21
(UTC+00:00)

Centaur D-1AR AC-39 - Pass Details

Date: 17 June 2021
Orbit: 535 x 36245 km, 21.0° (Epoch: 29 July)

Event Time Altitude Azimuth Distance (km) Brightness Sun altitude
Exits shadow 09:08:50 29° 195° (SSW) 2,615 4.2 -21.8°
Maximum altitude 09:10:51 31° 173° (S) 3,035 4.7 -21.6°
Drops below altitude 10° 18:44:49 10° 133° (SE) 17,381 9.1 79.8°
Sets 19:04:58 0° 121° (ESE) 13,570 8.3 77.5°
